Погода в Мишлеш

Россия / Республика Дагестан     41°39′53″N   47°05′23″E
темп.,
°C
ветер,
м/с
пор.,
м/с
влажн.,
%
обл.,
%
осадки,
мм/ч
давл.,
гПа
погр.,
м
9 мая, вс
вс900:00+1ссв32602 0.0 101812
03:00+1с226015 0.0 101612
06:00+3сз22712 0.0 101646
09:00+6зюз2379100 0.0 1013338
12:00+8юз457614 0.1 1012893
15:00+10юз46645 0.3 10091139
18:00+7ююз3491100 1.2 1009466
21:00+3юз119893 12.1 1012124
10 мая, пн
пн1000:00+1всв11100100 12.7 101370
03:00+2ю34100100 15.1 1011351
06:00−2зюз2299100 13.5 1013137
09:00−2юз33100100 29.8 1016262
12:00−3ююз339896 2.2 1019278
15:00−3юз349264 2.2 1020548
18:00−4зюз229459 0.0 102179
21:00−10ссз339628 0.0 102716
11 мая, вт
вт1100:00−10с33803 0.0 102612
03:00−9с33826 0.0 102512
06:00−6сз228985 0.0 102321
09:00−2зюз22100100 0.1 1018201
12:000зюз2210096 0.0 1017221
15:00+1зюз2210089 0.0 1017180
18:00+1сз329213 0.0 101734
21:00−2ссз43800 0.0 101813
12 мая, ср
ср1200:00−1с43840 0.0 101814
03:000с44780 0.0 101814
06:00+2с33760 0.0 101714
09:00+5зсз229978 0.0 101632
12:00+7з228367 0.1 1016323
15:00+8зюз235829 0.1 1017971
18:00+6сз11720 0.1 101810
21:00+2с33552 0.1 102112
13 мая, чт
чт1300:00+2с33512 0.0 102011
03:00+2с33570 0.0 102011
06:00+5с33630 0.0 101918
09:00+10юз12570 0.0 10181240
12:00+11юз23412 0.0 10181801
15:00+12юз22411 0.0 10171741
18:00+9юз22665 0.1 101825
21:00+3ссз117910 0.1 102110